IU1OPQ-3 Weather Reports


time (UTC)temp
F
wind
direction
speed
knots
gust
knots
rain 1hr
in
rain 24hr
in
rain mn
in
humidity
%
barometer
mb
20260508030000 54 213 2.6 7.8 0.00 0.00 0.00 82 1014.0
20260508024500 55 263 1.7 7.0 0.00 0.00 0.00 79 1013.9
20260508023002 55 210 7.8 7.8 0.00 0.00 0.00 81 1013.8
20260508021501 54 214 4.3 5.2 0.00 0.00 0.00 82 1013.9
20260508020001 55 226 2.6 4.3 0.00 0.00 0.00 80 1013.8
20260508014501 55 256 2.6 5.2 0.00 0.00 0.00 80 1013.9
20260508013001 54 220 2.6 4.3 0.00 0.00 0.00 82 1013.9
20260508011501 54 207 1.7 5.2 0.00 0.00 0.00 82 1013.9
20260508010001 55 222 2.6 4.3 0.00 0.00 0.00 79 1013.9
20260508004501 56 211 1.7 2.6 0.00 0.00 0.00 77 1013.8
20260508003001 55 135 0.9 1.7 0.00 0.00 0.00 77 1013.8
20260508001501 56 170 0.9 1.7 0.00 0.00 0.00 77 1014.2
20260508000001 55 227 0.9 1.7 0.00 0.00 0.64 78 1014.1
20260507234501 55 104 0.9 1.7 0.00 0.00 0.64 79 1014.4
20260507233001 53 121 4.3 5.2 0.00 0.00 0.64 85 1014.6
20260507231501 53 85 4.3 5.2 0.00 0.00 0.64 85 1014.5
20260507230001 53 82 3.5 4.3 0.00 0.00 0.64 86 1014.3
20260507224501 53 82 2.6 3.5 0.00 0.00 0.64 87 1014.3
20260507223001 54 89 3.5 3.5 0.00 0.00 0.64 83 1014.6
20260507221500 54 89 2.6 3.5 0.00 0.00 0.64 83 1014.1
20260507220001 54 93 4.3 5.2 0.00 0.07 0.64 81 1014.1
20260507214500 54 77 3.5 6.1 0.00 0.07 0.64 81 1014.0
20260507213001 54 165 3.5 3.5 0.00 0.07 0.64 84 1014.0
20260507211500 54 85 4.3 7.0 0.00 0.07 0.64 83 1013.9
20260507210001 54 30 6.1 7.0 0.00 0.07 0.64 82 1013.8
20260507204500 55 123 7.0 8.7 0.00 0.07 0.64 80 1013.6
20260507203001 55 69 5.2 5.2 0.00 0.07 0.64 84 1013.8
20260507201501 54 99 2.6 4.3 0.00 0.07 0.64 83 1013.6
20260507200000 54 76 4.3 9.6 0.00 0.07 0.64 82 1013.5
20260507194500 55 99 4.3 6.1 0.00 0.07 0.64 81 1013.3
20260507193001 55 93 3.5 8.7 0.00 0.07 0.64 81 1013.0
20260507191500 55 89 2.6 8.7 0.00 0.07 0.64 80 1012.8
20260507190002 56 80 6.1 12.2 0.00 0.07 0.64 77 1012.7
20260507184501 56 51 5.2 8.7 0.00 0.07 0.64 76 1012.6
20260507183000 57 88 6.1 13.9 0.00 0.07 0.64 74 1012.6
20260507181501 58 93 8.7 11.3 0.00 0.07 0.64 73 1012.6
20260507180001 58 118 7.0 11.3 0.00 0.07 0.64 71 1012.4
20260507174501 59 84 7.0 11.3 0.00 0.07 0.64 69 1012.5
20260507173001 59 83 5.2 13.9 0.00 0.07 0.64 67 1012.3
20260507171501 60 119 7.8 11.3 0.00 0.07 0.64 67 1012.4
20260507170000 61 95 7.0 12.2 0.00 0.07 0.64 64 1012.4
20260507164500 61 88 5.2 12.2 0.00 0.07 0.64 66 1012.3
20260507163000 62 110 3.5 7.8 0.00 0.07 0.64 66 1012.3
20260507160001 62 128 6.1 11.3 0.00 0.07 0.64 68 1012.1
20260507154501 63 93 6.1 8.7 0.00 0.07 0.64 68 1012.0
20260507153000 63 100 7.0 8.7 0.00 0.07 0.64 67 1012.2
20260507151500 64 104 2.6 7.8 0.00 0.07 0.64 65 1012.1
20260507150001 63 118 3.5 7.0 0.00 0.07 0.64 66 1012.1
20260507144501 65 80 0.9 4.3 0.00 0.07 0.64 59 1012.2
20260507143000 65 222 1.7 4.3 0.00 0.07 0.64 59 1012.3
20260507141501 65 77 1.7 5.2 0.00 0.07 0.64 60 1012.6
20260507140001 67 86 4.3 4.3 0.00 0.07 0.64 56 1012.3
20260507134500 65 4 3.5 5.2 0.00 0.07 0.64 57 1012.8
20260507133001 66 14 3.5 5.2 0.00 0.07 0.64 60 1012.9
20260507131501 63 93 1.7 2.6 0.00 0.07 0.64 61 1012.8
20260507130000 64 17 0.0 3.5 0.00 0.07 0.64 59 1013.0
20260507124500 59 311 0.0 1.7 0.00 0.07 0.64 67 1013.2
20260507123001 60 276 1.7 2.6 0.00 0.07 0.64 70 1013.3
20260507121500 60 319 0.9 2.6 0.00 0.07 0.64 68 1013.2
20260507120001 61 126 2.6 5.2 0.00 0.07 0.64 70 1013.5
20260507114500 60 57 0.9 1.7 0.00 0.07 0.64 71 1013.4
20260507113000 59 207 1.7 2.6 0.00 0.07 0.64 72 1013.5
20260507111501 57 142 2.6 3.5 0.00 0.07 0.64 77 1013.5
20260507110001 58 181 1.7 2.6 0.00 0.07 0.64 76 1013.8
20260507104500 57 238 2.6 3.5 0.00 0.07 0.64 78 1013.9
20260507103001 56 189 2.6 5.2 0.00 0.07 0.64 82 1014.0
20260507101501 56 232 3.5 6.1 0.00 0.07 0.64 81 1013.8
20260507100001 54 274 2.6 3.5 0.00 0.07 0.64 83 1014.0
20260507094500 55 238 4.3 6.1 0.00 0.07 0.64 84 1014.2
20260507093000 55 314 3.5 5.2 0.00 0.07 0.64 85 1013.8
20260507091500 54 191 2.6 5.2 0.00 0.07 0.64 87 1013.8
20260507090000 53 245 3.5 6.1 0.00 0.07 0.64 99 1013.9
20260507084501 51 273 2.6 3.5 0.00 0.07 0.64 98 1013.8
20260507083001 51 204 2.6 3.5 0.00 0.07 0.64 98 1013.7
20260507081501 51 212 2.6 5.2 0.00 0.07 0.64 98 1013.5
20260507080001 51 269 0.0 3.5 0.00 0.07 0.64 98 1013.4
20260507074500 51 155 2.6 3.5 0.00 0.07 0.64 99 1013.3
20260507073001 51 273 0.9 3.5 0.00 0.07 0.64 99 1013.4
20260507071500 50 220 1.7 2.6 0.00 0.07 0.64 99 1013.1
20260507070000 51 171 0.9 2.6 0.00 0.07 0.64 99 1013.2
20260507064500 50 306 0.0 3.5 0.00 0.07 0.64 99 1013.1
20260507063000 50 345 0.0 2.6 0.00 0.07 0.64 99 1013.0
20260507061501 50 211 1.7 4.3 0.00 0.07 0.64 99 1013.0
20260507060001 51 282 0.9 4.3 0.00 0.07 0.64 99 1012.7
20260507054500 51 254 0.0 2.6 0.00 0.07 0.64 99 1012.6
20260507053000 51 202 1.7 2.6 0.00 0.07 0.64 99 1012.2
20260507051501 51 174 1.7 2.6 0.00 0.07 0.64 99 1012.1
20260507050000 51 223 0.9 2.6 0.00 0.07 0.64 98 1011.7
20260507044501 50 142 1.7 3.5 0.00 0.07 0.64 98 1011.8
20260507043000 51 192 2.6 3.5 0.00 0.07 0.64 98 1011.7
20260507041500 51 224 1.7 5.2 0.00 0.07 0.64 97 1011.5
20260507040001 51 285 1.7 3.5 0.00 0.07 0.64 97 1011.4
20260507034500 51 204 1.7 7.0 0.00 0.07 0.64 97 1011.5
20260507033000 51 185 2.6 3.5 0.00 0.07 0.64 97 1011.4
20260507031501 51 215 6.1 7.8 0.00 0.07 0.64 96 1011.3